Aberdeen, SD

11:56 PM CDT on August 19, 2017 (GMT -0500)
Aberdeen Regional

Weather History for KABR - December, 2011

Change the Weather History Date:

Saturday, December 10, 2011

  Actual Average Record
Temperature  
Mean Temperature 28 °F 17 °F  
Max Temperature 44 °F 27 °F 58 °F (1979)
Min Temperature 12 °F 7 °F -29 °F (1972)
Degree Days  
Heating Degree Days 37 48  
Month to date heating degree days 480 462  
Since 1 July heating degree days 2159 2425  
Cooling Degree Days 0 0  
Month to date cooling degree days 0 0  
Year to date cooling degree days 729 525  
Moisture  
Dew Point 16 °F    
Average Humidity 63    
Maximum Humidity 84    
Minimum Humidity 41    
Precipitation  
Precipitation 0.00 in 0.02 in 0.50 in (1893)
Month to date precipitation 0.04 0.18  
Year to date precipitation 23.02 21.38  
Snow  
Snow 0.00 in - - ()
Month to date snowfall 0.5  
Since 1 July snowfall 0.6  
Snow Depth 0.00 in    
Sea Level Pressure  
Sea Level Pressure 30.12 in    
Wind  
Wind Speed 10 mph (SSW)    
Max Wind Speed 16 mph    
Max Gust Speed 21 mph    
Visibility 10 miles    
Events      
T = Trace of Precipitation, MM = Missing Value Source: NWS Daily Summary

Daily Weather History Graph

Daily Weather History Graph

Search for Another Location

Airport or City:

Trip Planner

Search our weather history database for the weather conditions in past years. The results will help you decide how hot, cold, wet, or windy it might be!

Date:

Astronomy

Dec. 10, 2011 Rise Set
Actual Time 8:02 AM CST 4:50 PM CST
Civil Twilight 7:28 AM CST 5:24 PM CST
Nautical Twilight 6:51 AM CST 6:01 PM CST
Astronomical Twilight 6:15 AM CST 6:37 PM CST
Moon 5:04 PM CST (12/10) 8:04 AM CST (12/10)
Length of Visible Light 9h 55m
Length of Day
8h 47m
Full, 100% of the Moon is Illuminated
Dec 10
Full
Dec 17
Last Quarter
Dec 24
New
Jan 1
First Quarter
Jan 9
Full

Hourly Weather History & Observations

Time (CST) Temp. Windchill Dew Point Humidity Pressure Visibility Wind Dir Wind Speed Gust Speed Precip Events Conditions
12:53 AM 12.0 °F -2.7 °F 5.0 °F 73% 30.27 in 10.0 mi South 12.7 mph - N/A   Clear
1:53 AM 12.2 °F -1.0 °F 6.8 °F 79% 30.16 in 10.0 mi SSW 10.4 mph - N/A   Clear
2:53 AM 14.0 °F 0.5 °F 7.0 °F 74% 30.23 in 10.0 mi South 11.5 mph - N/A   Overcast
3:53 AM 15.1 °F 1.1 °F 8.1 °F 74% 30.20 in 10.0 mi South 12.7 mph - N/A   Clear
4:53 AM 14.0 °F 0.5 °F 9.0 °F 80% 30.20 in 10.0 mi South 11.5 mph - N/A   Clear
5:53 AM 14.0 °F 1.2 °F 8.6 °F 79% 30.11 in 10.0 mi South 10.4 mph - N/A   Clear
6:53 AM 12.9 °F -0.9 °F 9.0 °F 84% 30.19 in 10.0 mi South 11.5 mph - N/A   Clear
7:53 AM 12.9 °F 1.6 °F 9.0 °F 84% 30.20 in 10.0 mi South 8.1 mph - N/A   Clear
8:53 AM 16.0 °F 4.4 °F 10.9 °F 81% 30.19 in 10.0 mi South 9.2 mph - N/A   Clear
9:53 AM 21.9 °F 12.5 °F 15.1 °F 75% 30.19 in 10.0 mi South 8.1 mph - N/A   Clear
10:53 AM 32.0 °F 23.6 °F 19.9 °F 61% 30.19 in 10.0 mi SW 10.4 mph - N/A   Clear
11:53 AM 39.0 °F 31.8 °F 21.0 °F 49% 30.15 in 10.0 mi WSW 11.5 mph - N/A   Clear
12:53 PM 42.1 °F 35.7 °F 21.9 °F 45% 30.13 in 10.0 mi WSW 11.5 mph - N/A   Clear
1:53 PM 44.1 °F 39.5 °F 23.0 °F 43% 30.11 in 10.0 mi WSW 8.1 mph - N/A   Clear
2:53 PM 44.6 °F 39.2 °F 23.0 °F 43% 30.05 in 10.0 mi WSW 10.4 mph - N/A   Clear
3:53 PM 42.8 °F 37.0 °F 24.8 °F 49% 30.04 in 10.0 mi SSW 10.4 mph - N/A   Clear
4:53 PM 33.1 °F 26.1 °F 21.0 °F 61% 30.10 in 10.0 mi SSW 8.1 mph - N/A   Clear
5:53 PM 32.0 °F 24.2 °F 21.2 °F 64% 30.02 in 10.0 mi South 9.2 mph - N/A   Clear
6:53 PM 28.9 °F 21.1 °F 21.0 °F 72% 30.07 in 10.0 mi South 8.1 mph - N/A   Clear
7:53 PM 30.0 °F 20.5 °F 21.0 °F 69% 30.05 in 10.0 mi South 11.5 mph - N/A   Clear
8:53 PM 30.0 °F 20.5 °F 21.0 °F 69% 30.03 in 10.0 mi South 11.5 mph - N/A   Clear
9:53 PM 28.0 °F 19.3 °F 19.9 °F 72% 30.02 in 10.0 mi South 9.2 mph - N/A   Clear
10:53 PM 30.0 °F 20.5 °F 23.0 °F 75% 29.99 in 10.0 mi South 11.5 mph - N/A   Clear
11:53 PM 28.0 °F 19.3 °F 21.9 °F 78% 29.98 in 10.0 mi South 9.2 mph - N/A   Clear